Regional Weather Roundup
Issued by NWS

Home | Current Version | Previous Version | Graphics & Text | Print | Product List | Glossary On
Versions: 1 2 3 4 5 6 7 8 9 10 11 12 13 14 15 16 17 18 19 20 21 22 23 24 25 26 27 28 29 30 31 32 33 34 35 36 37 38 39 40 41 42 43 44 45 46 47 48 49 50
000
ASUS45 KSLC 230310
RWRUT

UTAH REGIONAL WEATHER ROUNDUP
NATIONAL WEATHER SERVICE SALT LAKE CITY UT
800 PM MST WED FEB 22 2017

UTZ001>011-023>025-230400-

NORTHERN UTAH

CITY           SKY/WX    TMP DP  RH WIND       PRES   REMARKS
BRIGHAM CITY     N/A     32  30  93 N6        29.84R WCI  26
HILL AFB       FLURRIES  30  28  93 NE7       29.80F WCI  23
LOGAN          SNOW      34  32  92 W13       29.79R VSB 1/2 WCI  25
OGDEN          CLOUDY    30  30 100 NE13      29.81F WCI  20
SALT LAKE CITY FLURRIES  33  30  88 NE14      29.82F WCI  23
TOOELE VALLEY  CLOUDY    34  32  93 N8        29.82F WCI  27
WENDOVER       PTCLDY    36  16  44 NW16      29.82F WCI  26
HEBER CITY     LGT SNOW  30  28  93 CALM      29.74F
WEST JORDAN    CLOUDY    35  35 100 N3        29.83S

$$

UTZ011>015-024>027-230400-

CENTRAL/NORTHEAST UTAH

CITY           SKY/WX    TMP DP  RH WIND       PRES   REMARKS
PROVO AIRPORT  FLURRIES  31  30  96 N6        29.83S WCI  25
MOAB/CANYONLAN PTCLDY    50  20  30 SW9       29.55F
DELTA          CLOUDY    30  30 100 CALM      29.84F
PRICE          CLOUDY    38  26  62 NW17G28   29.61S WCI  28
RICHFIELD      MOCLDY    36  23  60 W2        29.79R
ROOSEVELT      LGT SNOW  34  32  93 E6        29.69F WCI  29
VERNAL         LGT SNOW  32  30  92 NW8       29.69F FOG     WCI  25

$$

UTZ013>016-019>022-027-230400-

SOUTHERN UTAH

CITY           SKY/WX    TMP DP  RH WIND       PRES   REMARKS
BRYCE CANYON   MOCLDY    33  23  66 SW20G29   29.71F WCI  21
CEDAR CITY     LGT SNOW  29  26  89 W8        29.83R VSB 3/4 WCI  21
MILFORD        SNOW      30  29  96 N14       29.82S VSB 1/2 WCI  19
ST GEORGE      CLOUDY    47  31  53 NW23G31   29.78R
HANKSVILLE     PTCLDY    54  19  26 SW12G21   29.60F
KANAB          MOCLDY    48  25  40 W20G29    29.75F
BLANDING       PTCLDY    49  18  28 SW17G24   29.77F

$$

REGIONAL REPORTS     COLORADO/ARIZONA

CITY           SKY/WX    TMP DP  RH WIND       PRES   REMARKS
CRAIG, CO      CLOUDY    32  27  81 CALM      29.68F
GRAND JUNCTION CLEAR     54  15  21 SW8       29.58F
RIFLE, CO      PTCLDY    50  24  36 S7        29.61F
MONTROSE, CO   CLOUDY    47  23  38 SE3       29.68F
CORTEZ, CO     CLOUDY    48  23  37 SW14      29.75F
COLORADO CITY    N/A     46  25  42 W21G28    29.76F
PAGE, AZ       CLEAR     57   7  13 SW10G23   29.65S
GRAND CANYON   CLEAR     38  27  64 SW15      29.81F WCI  29
KINGMAN, AZ    PTCLDY    50  14  23 SW21      29.84R
FLAGSTAFF, AZ  PTCLDY    39  31  72 SW20G28   29.86F WCI  29

$$

REGIONAL REPORTS    NEVADA/IDAHO/WYOMING

CITY           SKY/WX    TMP DP  RH WIND       PRES   REMARKS
LAS VEGAS, NV  PTCLDY    51  30  44 NW30G43   29.81R
ELY, NY        PTCLDY    17   6  62 W7        29.85F WCI   8
ELKO, NV       MOCLDY    28  19  69 SW10      29.84F WCI  19
POCATELLO, ID  CLOUDY    32  27  81 SW7       29.78F WCI  26
BURLEY, ID     FLURRIES  33  28  81 W5        29.78F WCI  29
FORT BRIDGER,  LGT SNOW  26  26 100 E7        29.76F WCI  18
EVANSTON, WY   LGT SNOW  25  21  85 E6        29.72S VSB 1   WCI  18
ROCK SPRINGS,  CLOUDY    27  22  81 SE9       29.72F WCI  18

$$



USA.gov is the U.S. government's official web portal to all federal, state and local government web resources and services.